| time (UTC) | temp C | wind direction | speed KPH | gust KPH | rain 1hr cm | rain 24hr cm | rain mn cm | humidity % | barometer mb |
| 20260506081555 | 16 | 327 | 8.0 | 14.5 | 0.00 | 0.00 | 0.00 | 78 | 1008.1 |
| 20260506073050 | 16 | 336 | 6.4 | 12.9 | 0.00 | 0.00 | 0.00 | 77 | 1007.7 |
| 20260506071555 | 16 | 341 | 6.4 | 14.5 | 0.00 | 0.00 | 0.00 | 77 | 1007.7 |
| 20260506061550 | 17 | 347 | 12.9 | 20.9 | 0.00 | 0.00 | 0.00 | 77 | 1007.5 |
| 20260506060112 | 17 | 346 | 9.7 | 19.3 | 0.00 | 0.00 | 0.00 | 76 | 1007.5 |
| 20260506044610 | 19 | 339 | 6.4 | 19.3 | 0.00 | 0.00 | 0.00 | 74 | 1007.3 |
| 20260506043054 | 19 | 355 | 11.3 | 20.9 | 0.00 | 0.00 | 0.00 | 73 | 1007.4 |
| 20260506041556 | 20 | 355 | 11.3 | 20.9 | 0.00 | 0.00 | 0.00 | 72 | 1007.3 |
| 20260506040055 | 20 | 340 | 9.7 | 20.9 | 0.00 | 0.00 | 0.00 | 72 | 1007.2 |
| 20260506034553 | 20 | 341 | 8.0 | 19.3 | 0.00 | 0.00 | 0.00 | 71 | 1007.0 |
| 20260506033052 | 21 | 355 | 8.0 | 19.3 | 0.00 | 0.00 | 0.00 | 70 | 1006.7 |
| 20260506031558 | 21 | 24 | 6.4 | 14.5 | 0.00 | 0.00 | 0.00 | 69 | 1006.3 |
| 20260506030052 | 22 | 9 | 4.8 | 16.1 | 0.00 | 0.00 | 0.00 | 69 | 1006.0 |
| 20260506024558 | 22 | 24 | 11.3 | 22.5 | 0.00 | 0.00 | 0.00 | 69 | 1006.4 |
| 20260506023100 | 22 | 352 | 8.0 | 17.7 | 0.00 | 0.00 | 0.00 | 67 | 1005.6 |
| 20260506021553 | 23 | 317 | 12.9 | 17.7 | 0.00 | 0.00 | 0.00 | 67 | 1005.5 |
| 20260506020049 | 23 | 30 | 8.0 | 16.1 | 0.00 | 0.00 | 0.00 | 66 | 1004.8 |
| 20260506014550 | 24 | 355 | 8.0 | 17.7 | 0.00 | 0.00 | 0.00 | 65 | 1004.5 |
| 20260506013052 | 24 | 338 | 6.4 | 14.5 | 0.00 | 0.00 | 0.00 | 65 | 1004.2 |
| 20260506011551 | 24 | 355 | 6.4 | 17.7 | 0.00 | 0.00 | 0.00 | 65 | 1003.9 |
| 20260506010050 | 25 | 346 | 6.4 | 14.5 | 0.00 | 0.00 | 0.00 | 64 | 1004.0 |
| 20260506004553 | 25 | 19 | 4.8 | 14.5 | 0.00 | 0.00 | 0.00 | 64 | 1003.3 |
| 20260506003046 | 25 | 344 | 6.4 | 19.3 | 0.00 | 0.00 | 0.00 | 63 | 1003.4 |
| 20260506001606 | 26 | 350 | 9.7 | 22.5 | 0.00 | 0.00 | 0.00 | 64 | 1003.6 |
| 20260506000053 | 28 | 291 | 1.6 | 8.0 | 0.00 | 0.00 | 0.00 | 74 | 1003.3 |
| 20260505234554 | 28 | 184 | 3.2 | 19.3 | 0.00 | 0.00 | 0.00 | 70 | 1002.9 |
| 20260505233051 | 29 | 101 | 4.8 | 16.1 | 0.00 | 0.00 | 0.00 | 68 | 1002.7 |
| 20260505231602 | 31 | 182 | 4.8 | 16.1 | 0.00 | 0.00 | 0.00 | 65 | 1002.4 |
| 20260505230059 | 32 | 113 | 3.2 | 12.9 | 0.00 | 0.00 | 0.00 | 55 | 1002.4 |
| 20260505224556 | 32 | 180 | 3.2 | 11.3 | 0.00 | 0.00 | 0.00 | 53 | 1002.4 |
| 20260505223048 | 31 | 200 | 3.2 | 9.7 | 0.00 | 0.00 | 0.00 | 56 | 1002.3 |
| 20260505221553 | 32 | 175 | 1.6 | 12.9 | 0.00 | 0.00 | 0.00 | 56 | 1002.2 |
| 20260505220056 | 32 | 0 | 1.6 | 12.9 | 0.00 | 0.00 | 0.00 | 54 | 1002.1 |
| 20260505214552 | 32 | 132 | 1.6 | 14.5 | 0.00 | 0.00 | 0.00 | 55 | 1002.3 |
| 20260505213105 | 32 | 253 | 3.2 | 16.1 | 0.00 | 0.00 | 0.00 | 56 | 1002.3 |
| 20260505211556 | 31 | 198 | 3.2 | 12.9 | 0.00 | 0.00 | 0.00 | 56 | 1002.5 |
| 20260505210055 | 31 | 177 | 3.2 | 11.3 | 0.00 | 0.00 | 0.00 | 56 | 1002.6 |
| 20260505204555 | 32 | 240 | 3.2 | 16.1 | 0.00 | 0.00 | 0.00 | 55 | 1002.8 |
| 20260505203103 | 31 | 265 | 6.4 | 16.1 | 0.00 | 0.00 | 0.00 | 56 | 1002.8 |
| 20260505201606 | 31 | 228 | 6.4 | 19.3 | 0.00 | 0.00 | 0.00 | 58 | 1003.1 |
| 20260505200058 | 31 | 220 | 3.2 | 19.3 | 0.00 | 0.00 | 0.00 | 60 | 1003.3 |
| 20260505194559 | 31 | 199 | 1.6 | 16.1 | 0.00 | 0.00 | 0.00 | 62 | 1003.2 |
| 20260505193052 | 30 | 244 | 8.0 | 22.5 | 0.00 | 0.00 | 0.00 | 59 | 1003.4 |
| 20260505191611 | 30 | 227 | 6.4 | 16.1 | 0.00 | 0.00 | 0.00 | 63 | 1003.5 |
| 20260505190049 | 29 | 145 | 6.4 | 19.3 | 0.00 | 0.00 | 0.00 | 63 | 1003.7 |
| 20260505184551 | 28 | 207 | 8.0 | 22.5 | 0.00 | 0.00 | 0.00 | 64 | 1004.0 |
| 20260505183053 | 28 | 184 | 6.4 | 19.3 | 0.00 | 0.00 | 0.00 | 67 | 1004.0 |
| 20260505181552 | 28 | 215 | 9.7 | 25.7 | 0.00 | 0.00 | 0.00 | 67 | 1004.0 |
| 20260505174557 | 27 | 220 | 8.0 | 20.9 | 0.00 | 0.00 | 0.00 | 70 | 1004.2 |
| 20260505173048 | 26 | 175 | 8.0 | 24.1 | 0.00 | 0.00 | 0.00 | 72 | 1004.1 |
| 20260505171551 | 26 | 224 | 8.0 | 27.4 | 0.00 | 0.00 | 0.00 | 72 | 1004.1 |
| 20260505170047 | 26 | 113 | 8.0 | 27.4 | 0.00 | 0.00 | 0.00 | 74 | 1003.8 |
| 20260505164551 | 26 | 181 | 8.0 | 29.0 | 0.00 | 0.00 | 0.00 | 74 | 1003.8 |
| 20260505163049 | 25 | 132 | 8.0 | 33.8 | 0.00 | 0.00 | 0.00 | 74 | 1003.8 |
| 20260505161553 | 25 | 201 | 9.7 | 27.4 | 0.00 | 0.00 | 0.00 | 75 | 1004.2 |
| 20260505153053 | 25 | 205 | 8.0 | 25.7 | 0.00 | 0.00 | 0.00 | 78 | 1003.9 |
| 20260505151549 | 24 | 221 | 9.7 | 25.7 | 0.00 | 0.00 | 0.00 | 79 | 1003.9 |
| 20260505124550 | 20 | 150 | 8.0 | 19.3 | 0.00 | 0.00 | 0.00 | 91 | 1003.6 |
| 20260505123055 | 20 | 206 | 8.0 | 17.7 | 0.00 | 0.00 | 0.00 | 91 | 1003.4 |
| 20260505121548 | 19 | 175 | 6.4 | 16.1 | 0.00 | 0.00 | 0.00 | 92 | 1003.1 |
| 20260505120052 | 19 | 150 | 4.8 | 14.5 | 0.00 | 0.00 | 0.00 | 92 | 1003.0 |
| 20260505114556 | 19 | 157 | 4.8 | 16.1 | 0.00 | 0.00 | 0.00 | 92 | 1002.8 |
| 20260505113053 | 19 | 196 | 4.8 | 14.5 | 0.00 | 0.00 | 0.00 | 92 | 1002.9 |
| 20260505111547 | 19 | 203 | 6.4 | 16.1 | 0.00 | 0.00 | 0.00 | 92 | 1002.7 |
| 20260505101604 | 19 | 210 | 6.4 | 17.7 | 0.00 | 0.00 | 0.00 | 91 | 1002.7 |
| 20260505094551 | 19 | 184 | 4.8 | 17.7 | 0.00 | 0.00 | 0.00 | 90 | 1002.8 |
| 20260505093100 | 20 | 87 | 6.4 | 17.7 | 0.00 | 0.00 | 0.00 | 90 | 1003.0 |
| 20260505091554 | 20 | 168 | 8.0 | 20.9 | 0.00 | 0.00 | 0.00 | 89 | 1003.0 |
| 20260505090052 | 20 | 166 | 8.0 | 17.7 | 0.00 | 0.00 | 0.00 | 89 | 1003.2 |
| 20260505084547 | 20 | 178 | 8.0 | 19.3 | 0.00 | 0.00 | 0.00 | 88 | 1003.2 |
| 20260505083047 | 20 | 120 | 9.7 | 24.1 | 0.00 | 0.00 | 0.00 | 88 | 1003.2 |
| 20260505081605 | 20 | 204 | 8.0 | 22.5 | 0.00 | 0.00 | 0.00 | 88 | 1003.2 |